Regional Weather Roundup
Issued by NWS Jackson, KY

Home | Current Version | Previous Version | Text Only | Print | Product List | Glossary On
Versions: 1 2 3 4 5 6 7 8 9 10 11 12 13 14 15 16 17 18 19 20 21 22 23 24 25 26 27
000
ASUS43 KJKL 251510
RWRJKL

EAST KENTUCKY HOURLY WEATHER ROUNDUP
NATIONAL WEATHER SERVICE JACKSON KY
1100 AM EDT SUN JUN 25 2017

NOTE: "FAIR" INDICATES FEW OR NO CLOUDS BELOW 12,000 FEET WITH
NO SIGNIFICANT WEATHER AND/OR OBSTRUCTIONS TO VISIBILITY.

* THESE REPORTS ARE NOT UNDER NWS QUALITY CONTROL AND MAY NOT
  REPORT WEATHER SUCH AS PRECIPITATION AND FOG.

KYZ079-080-083-085-087-088-110-112-115-119-120-251600
...EASTERN KENTUCKY...

CITY           SKY/WX    TMP DP  RH WIND       PRES   REMARKS
JACKSON        SUNNY     70  52  52 CALM      30.22S
LONDON         SUNNY     73  45  36 N9        30.23S
SOMERSET*      SUNNY     72  46  40 NW6       30.24S
MONTICELLO*    SUNNY     73  50  44 N16G22    30.25S
WILLIAMSBURG*  SUNNY     72  50  46 W6        30.23S
MIDDLESBORO*   CLOUDY    72  54  53 N3        30.23S
HARLAN APT*    SUNNY     72  48  43 N3        30.23S
PIKE CO APT*     N/A     69  55  60 W8        30.22S
BIG SANDY APT* SUNNY     71  53  53 W7        30.21S
MOREHEAD APT*  SUNNY     72  52  49 VRB6G13   30.22S HAZE
$$

KYZ035-036-041-042-044-050-067-078-099-251600
...CENTRAL KENTUCKY...

CITY           SKY/WX    TMP DP  RH WIND       PRES   REMARKS
MT STERLING*   SUNNY     72  50  46 NW6       30.22S
FLEMING/MASON* SUNNY     72  50  47 W10       30.20S
DANVILLE*      SUNNY     72  45  37 NW9       30.24R
LEXINGTON      SUNNY     74  49  41 W8        30.21S
FRANKFORT      SUNNY     74  50  42 VRB7      30.19S
LOUISVILLE     SUNNY     77  48  35 W12       30.19S
LEBANON*         N/A    N/A N/A N/A MISG        N/A
GLASGOW*       SUNNY     74  49  41 NW3       30.23S
BOWLING GREEN  SUNNY     75  52  44 VRB3      30.24R
$$

KYZ091>093-OHZ055-061-077-WVZ005-015-034-035-042-251600
...SOUTHERN OHIO/WEST VIRGINIA...

CITY           SKY/WX    TMP DP  RH WIND       PRES   REMARKS
COVINGTON      SUNNY     72  50  45 W15       30.17R
COLUMBUS       SUNNY     73  50  44 W12G23    30.11F
DAYTON         SUNNY     71  47  42 W23G29    30.14R
WILMINGTON     SUNNY     72  51  47 W15G24    30.14S
HUNTINGTON     SUNNY     73  47  39 NW7       30.18R
CHARLESTON     MOSUNNY   72  52  49 SW8       30.18R
PINEVILLE*     SUNNY     72  51  48 MISG      30.25S
BECKLEY        SUNNY     67  48  50 NW10      30.21R
BLUEFIELD      PTSUNNY   63  51  65 NW9G16    30.23R
LOGAN CO APT*    N/A     70  52  52 CALM      30.20S
$$

VAZ002-007-008-TNZ017-027-036-066-071-251600
...SOUTHWEST VIRGINIA/EAST TENNESSEE...

CITY           SKY/WX    TMP DP  RH WIND       PRES   REMARKS
WISE*          MOSUNNY   66  50  55 CALM      30.26S
JONESVILLE*      N/A     73  54  49 N5        30.24R
ABINGDON*      SUNNY     70  54  57 N3        30.22S
BRISTOL        PTSUNNY   72  56  57 CALM      30.20F
MORRISTOWN*    SUNNY     70  55  60 CALM      30.21R
SEVIERVILLE*   SUNNY     72  59  64 CALM      30.21R
KNOXVILLE      CLOUDY    68  57  68 N5        30.21R
LAFOLLETTE*    MOSUNNY   72  55  56 VRB3      30.26S
OAK RIDGE      PTSUNNY   72  54  53 CALM      30.22S
CROSSVILLE     CLOUDY    69  50  50 N10       30.25S
NASHVILLE      MOSUNNY   77  51  40 VRB6      30.24R
$$

...KEY TO REMARKS...
VSB - VISIBILITY IN MILES
WCI - WIND CHILL INDEX
HX  - HEAT INDEX

$$




USA.gov is the U.S. government's official web portal to all federal, state and local government web resources and services.